TimeEDT,TemperatureF,Dew PointF,Humidity,Sea Level PressureIn,VisibilityMPH,Wind Direction,Wind SpeedMPH,Gust SpeedMPH,PrecipitationIn,Events,Conditions,WindDirDegrees,DateUTC
12:00 AM,53.6,44.6,72,30.43,10.0,Calm,Calm,-,N/A,,Clear,0,2013-05-02 04:00:00
12:20 AM,51.8,46.4,82,30.43,10.0,Calm,Calm,-,N/A,,Clear,0,2013-05-02 04:20:00
12:40 AM,51.8,44.6,76,30.43,10.0,Calm,Calm,-,N/A,,Clear,0,2013-05-02 04:40:00
1:00 AM,50.0,44.6,82,30.43,10.0,Calm,Calm,-,N/A,,Clear,0,2013-05-02 05:00:00
1:20 AM,50.0,44.6,82,30.44,10.0,Calm,Calm,-,N/A,,Clear,0,2013-05-02 05:20:00
1:40 AM,50.0,44.6,82,30.43,10.0,Calm,Calm,-,N/A,,Clear,0,2013-05-02 05:40:00
2:00 AM,48.2,42.8,82,30.43,10.0,Calm,Calm,-,N/A,,Clear,0,2013-05-02 06:00:00
2:20 AM,48.2,44.6,87,30.42,10.0,Calm,Calm,-,N/A,,Clear,0,2013-05-02 06:20:00
2:40 AM,46.4,42.8,87,30.42,10.0,Calm,Calm,-,N/A,,Clear,0,2013-05-02 06:40:00
3:00 AM,44.6,42.8,93,30.42,10.0,Calm,Calm,-,N/A,,Clear,0,2013-05-02 07:00:00
3:20 AM,44.6,41.0,87,30.42,10.0,Calm,Calm,-,N/A,,Clear,0,2013-05-02 07:20:00
3:40 AM,44.6,41.0,87,30.42,10.0,Calm,Calm,-,N/A,,Clear,0,2013-05-02 07:40:00
4:00 AM,44.6,41.0,87,30.41,10.0,Calm,Calm,-,N/A,,Clear,0,2013-05-02 08:00:00
4:20 AM,44.6,41.0,87,30.42,10.0,Calm,Calm,-,N/A,,Clear,0,2013-05-02 08:20:00
4:40 AM,42.8,41.0,93,30.41,10.0,Calm,Calm,-,N/A,,Clear,0,2013-05-02 08:40:00
5:00 AM,42.8,41.0,93,30.41,10.0,Calm,Calm,-,N/A,,Clear,0,2013-05-02 09:00:00
5:40 AM,42.8,39.2,87,30.41,10.0,Calm,Calm,-,N/A,,Clear,0,2013-05-02 09:40:00
6:00 AM,42.8,39.2,87,30.42,10.0,Calm,Calm,-,N/A,,Clear,0,2013-05-02 10:00:00
6:20 AM,42.8,39.2,87,30.42,10.0,Calm,Calm,-,N/A,,Clear,0,2013-05-02 10:20:00
6:40 AM,42.8,39.2,87,30.42,10.0,Calm,Calm,-,N/A,,Clear,0,2013-05-02 10:40:00
7:00 AM,44.6,41.0,87,30.43,10.0,Calm,Calm,-,N/A,,Clear,0,2013-05-02 11:00:00
7:20 AM,46.4,42.8,87,30.44,10.0,Calm,Calm,-,N/A,,Clear,0,2013-05-02 11:20:00
7:40 AM,46.4,42.8,87,30.44,10.0,Calm,Calm,-,N/A,,Clear,0,2013-05-02 11:40:00
8:00 AM,48.2,44.6,87,30.44,10.0,Calm,Calm,-,N/A,,Clear,0,2013-05-02 12:00:00
8:25 AM,50.0,42.8,76,30.44,10.0,East,5.8,-,N/A,,Clear,80,2013-05-02 12:25:00
8:45 AM,51.8,44.6,76,30.45,10.0,East,6.9,-,N/A,,Clear,80,2013-05-02 12:45:00
9:05 AM,51.8,42.8,71,30.45,10.0,East,5.8,-,N/A,,Clear,100,2013-05-02 13:05:00
9:25 AM,53.6,42.8,67,30.45,10.0,ENE,6.9,-,N/A,,Clear,70,2013-05-02 13:25:00
10:05 AM,55.4,44.6,67,30.45,10.0,ESE,4.6,-,N/A,,Clear,110,2013-05-02 14:05:00
10:25 AM,55.4,42.8,63,30.45,10.0,ENE,4.6,-,N/A,,Clear,70,2013-05-02 14:25:00
10:45 AM,57.2,42.8,59,30.45,10.0,ESE,3.5,-,N/A,,Clear,110,2013-05-02 14:45:00
11:05 AM,57.2,42.8,59,30.45,10.0,Calm,Calm,-,N/A,,Clear,0,2013-05-02 15:05:00
11:25 AM,59.0,41.0,51,30.45,10.0,East,5.8,-,N/A,,Clear,80,2013-05-02 15:25:00
11:45 AM,60.8,41.0,48,30.44,10.0,East,3.5,-,N/A,,Clear,90,2013-05-02 15:45:00
12:05 PM,62.6,41.0,45,30.43,10.0,SE,5.8,-,N/A,,Clear,140,2013-05-02 16:05:00
12:25 PM,64.4,39.2,40,30.43,10.0,SE,5.8,-,N/A,,Clear,130,2013-05-02 16:25:00
12:45 PM,64.4,41.0,42,30.42,10.0,ESE,3.5,-,N/A,,Clear,120,2013-05-02 16:45:00
1:05 PM,66.2,39.2,37,30.42,10.0,ESE,4.6,-,N/A,,Clear,110,2013-05-02 17:05:00
1:25 PM,66.2,39.2,37,30.41,10.0,SE,6.9,-,N/A,,Clear,130,2013-05-02 17:25:00
1:45 PM,66.2,41.0,40,30.41,10.0,ENE,8.1,-,N/A,,Clear,70,2013-05-02 17:45:00
2:05 PM,69.8,41.0,35,30.40,10.0,East,9.2,-,N/A,,Clear,90,2013-05-02 18:05:00
2:25 PM,69.8,39.2,33,30.40,10.0,ESE,5.8,-,N/A,,Clear,110,2013-05-02 18:25:00
2:45 PM,69.8,39.2,33,30.40,10.0,East,6.9,-,N/A,,Clear,90,2013-05-02 18:45:00
3:05 PM,69.8,35.6,28,30.39,10.0,ESE,5.8,-,N/A,,Clear,110,2013-05-02 19:05:00
3:25 PM,71.6,35.6,27,30.39,10.0,SE,5.8,-,N/A,,Clear,140,2013-05-02 19:25:00
3:45 PM,71.6,35.6,27,30.38,10.0,SE,8.1,-,N/A,,Clear,130,2013-05-02 19:45:00
4:05 PM,73.4,35.6,25,30.38,10.0,SE,6.9,-,N/A,,Clear,140,2013-05-02 20:05:00
4:25 PM,73.4,35.6,25,30.37,10.0,SE,5.8,-,N/A,,Clear,130,2013-05-02 20:25:00
5:05 PM,73.4,35.6,25,30.36,10.0,ESE,5.8,-,N/A,,Clear,120,2013-05-02 21:05:00
5:25 PM,71.6,37.4,29,30.36,10.0,SE,8.1,-,N/A,,Clear,130,2013-05-02 21:25:00
5:45 PM,71.6,37.4,29,30.36,10.0,SE,8.1,-,N/A,,Clear,140,2013-05-02 21:45:00
6:05 PM,71.6,35.6,27,30.35,10.0,SE,6.9,-,N/A,,Clear,140,2013-05-02 22:05:00
6:25 PM,71.6,35.6,27,30.35,10.0,SE,8.1,-,N/A,,Clear,140,2013-05-02 22:25:00
6:45 PM,69.8,35.6,28,30.35,10.0,SE,9.2,-,N/A,,Clear,140,2013-05-02 22:45:00
7:05 PM,69.8,39.2,33,30.35,10.0,SE,10.4,-,N/A,,Clear,140,2013-05-02 23:05:00
7:25 PM,68.0,37.4,33,30.34,10.0,SE,4.6,-,N/A,,Clear,130,2013-05-02 23:25:00
7:45 PM,66.2,37.4,35,30.35,10.0,SE,3.5,-,N/A,,Clear,140,2013-05-02 23:45:00
8:05 PM,64.4,39.2,40,30.35,10.0,Calm,Calm,-,N/A,,Clear,0,2013-05-03 00:05:00
8:25 PM,64.4,39.2,40,30.34,10.0,Calm,Calm,-,N/A,,Clear,0,2013-05-03 00:25:00
9:05 PM,60.8,41.0,48,30.35,10.0,Calm,Calm,-,N/A,,Clear,0,2013-05-03 01:05:00
9:25 PM,60.8,42.8,52,30.35,10.0,Calm,Calm,-,N/A,,Clear,0,2013-05-03 01:25:00
9:45 PM,57.2,42.8,59,30.35,10.0,Calm,Calm,-,N/A,,Clear,0,2013-05-03 01:45:00
10:05 PM,57.2,42.8,59,30.34,10.0,Calm,Calm,-,N/A,,Clear,0,2013-05-03 02:05:00
10:45 PM,55.4,44.6,67,30.34,10.0,Calm,Calm,-,N/A,,Clear,0,2013-05-03 02:45:00
11:05 PM,53.6,42.8,67,30.34,10.0,Calm,Calm,-,N/A,,Clear,0,2013-05-03 03:05:00
11:25 PM,53.6,44.6,72,30.33,10.0,Calm,Calm,-,N/A,,Clear,0,2013-05-03 03:25:00
11:45 PM,53.6,44.6,72,30.33,10.0,Calm,Calm,-,N/A,,Clear,0,2013-05-03 03:45:00